Location: Erskine
(52.3216°N, 112.8806°W)
Time: 00:22:42
(UTC+00:00)

AAUSAT CUBESAT 2 - Pass Details

Date: 11 December 2023
Orbit: 526 x 534 km, 97.6° (Epoch: 27 February)

Event Time Altitude Azimuth Distance (km) Brightness Sun altitude
Rises 00:21:09 0° 216° (SW) 2,666 ? -8.9°
Reaches altitude 10° 00:24:23 10° 246° (WSW) 1,778 ? -9.4°
Maximum altitude 00:26:04 12° 272° (W) 1,626 ? -9.6°
Drops below altitude 10° 00:27:45 10° 299° (WNW) 1,782 ? -9.8°
Sets 00:31:01 0° 329° (NNW) 2,677 ? -10.3°
